FW3802 Weather Reports


time (UTC)temp
C
wind
direction
speed
KPH
gust
KPH
rain 1hr
cm
rain 24hr
cm
rain mn
cm
humidity
%
barometer
mb
20260503071658 6 349 0.0 0.0 0.00 0.00 0.00 82 1016.7
20260503070658 6 349 0.0 0.0 0.00 0.00 0.00 82 1016.6
20260503054657 7 349 0.0 0.0 0.00 0.00 0.00 74 1016.2
20260503054138 7 349 0.0 0.0 0.00 0.00 0.00 73 1016.1
20260503052657 7 349 0.0 0.0 0.00 0.00 0.00 72 1016.1
20260503051700 8 349 0.0 0.0 0.00 0.00 0.00 71 1016.1
20260503050657 8 349 0.0 0.0 0.00 0.00 0.00 69 1016.0
20260503045657 8 349 0.0 0.0 0.00 0.00 0.00 65 1016.0
20260503044656 8 349 0.0 0.0 0.00 0.00 0.00 65 1016.0
20260503043657 9 349 0.0 0.0 0.00 0.00 0.00 65 1015.9
20260503043135 9 349 0.0 0.0 0.00 0.00 0.00 62 1015.8
20260503041657 9 349 0.0 0.0 0.00 0.00 0.00 61 1015.7
20260503040656 10 349 0.0 0.0 0.00 0.00 0.00 61 1015.5
20260503035659 10 349 0.0 0.0 0.00 0.00 0.00 57 1015.5
20260503034701 11 349 0.0 0.0 0.00 0.00 0.00 55 1015.5
20260503033652 11 349 0.0 0.0 0.00 0.00 0.00 54 1015.3
20260503033140 11 349 0.0 0.0 0.00 0.00 0.00 54 1015.4
20260503032605 12 349 0.0 1.6 0.00 0.00 0.00 52 1015.3
20260503030653 12 354 0.0 4.8 0.00 0.00 0.00 50 1015.2
20260503025652 12 323 0.0 4.8 0.00 0.00 0.00 49 1015.1
20260503024652 12 328 0.0 4.8 0.00 0.00 0.00 48 1015.1
20260503023655 13 341 0.0 6.4 0.00 0.00 0.00 49 1015.0
20260503022648 13 15 1.6 6.4 0.00 0.00 0.00 50 1014.9
20260503021648 13 347 0.0 4.8 0.00 0.00 0.00 49 1014.9
20260503021131 13 315 0.0 6.4 0.00 0.00 0.00 49 1014.7
20260503015643 13 19 1.6 6.4 0.00 0.00 0.00 50 1014.5
20260503014643 13 351 0.0 3.2 0.00 0.00 0.00 50 1014.4
20260503013642 14 351 0.0 8.0 0.00 0.00 0.00 48 1014.2
20260503012643 14 338 0.0 6.4 0.00 0.00 0.00 49 1014.1
20260503011642 14 320 0.0 6.4 0.00 0.00 0.00 52 1013.9
20260503010645 14 347 0.0 1.6 0.00 0.00 0.00 55 1013.7
20260503005642 13 352 0.0 1.6 0.00 0.00 0.00 55 1013.6
20260503004643 14 357 0.0 1.6 0.00 0.00 0.00 58 1013.5
20260503003636 14 359 0.0 0.0 0.00 0.00 0.00 60 1013.3
20260503003124 14 1 0.0 3.2 0.00 0.00 0.00 66 1013.1
20260503001636 14 233 0.0 0.0 0.00 0.00 0.00 63 1012.8
20260503000639 14 233 0.0 1.6 0.00 0.00 0.00 65 1012.6
20260502235639 14 233 0.0 1.6 0.00 0.00 0.00 64 1012.6
20260502234637 14 269 0.0 1.6 0.00 0.00 0.00 62 1012.3
20260502233636 15 115 0.0 0.0 0.00 0.00 0.00 60 1012.1
20260502232637 15 115 0.0 0.0 0.00 0.00 0.00 57 1011.9
20260502231639 15 115 0.0 0.0 0.00 0.00 0.00 57 1011.7
20260502231103 15 115 0.0 0.0 0.00 0.00 0.00 54 1011.6
20260502225630 15 115 0.0 0.0 0.00 0.00 0.00 54 1011.5
20260502224630 16 115 0.0 0.0 0.00 0.00 0.00 51 1011.5
20260502223630 16 114 0.0 1.6 0.00 0.00 0.00 49 1011.4
20260502222630 16 247 0.0 3.2 0.00 0.00 0.00 47 1011.4
20260502221630 16 233 0.0 1.6 0.00 0.00 0.00 47 1011.3
20260502220630 16 231 0.0 1.6 0.00 0.00 0.00 46 1011.2
20260502215630 16 253 0.0 1.6 0.00 0.00 0.00 47 1011.2
20260502215104 16 13 0.0 1.6 0.00 0.00 0.00 47 1011.0
20260502214109 16 34 0.0 1.6 0.00 0.00 0.00 46 1011.1
20260502212628 16 169 0.0 1.6 0.00 0.00 0.00 48 1011.1
20260502211628 16 243 0.0 1.6 0.00 0.00 0.00 46 1011.1
20260502210629 16 209 0.0 3.2 0.00 0.00 0.00 46 1011.1
20260502205627 16 200 0.0 3.2 0.00 0.00 0.00 47 1011.0
20260502204628 15 341 1.6 8.0 0.00 0.00 0.00 45 1011.0
20260502203631 16 110 0.0 3.2 0.00 0.00 0.00 44 1011.1
20260502202629 16 254 1.6 4.8 0.00 0.00 0.00 44 1011.1
20260502201626 16 321 0.0 3.2 0.00 0.00 0.00 46 1011.2
20260502200625 15 142 0.0 3.2 0.00 0.00 0.00 47 1011.4
20260502195625 15 184 0.0 1.6 0.00 0.00 0.00 45 1011.6
20260502194626 15 315 0.0 3.2 0.00 0.00 0.00 45 1011.8
20260502193626 15 323 1.6 8.0 0.00 0.00 0.00 45 1011.8
20260502192629 15 124 0.0 3.2 0.00 0.00 0.00 46 1012.0
20260502191630 15 51 3.2 12.9 0.00 0.00 0.00 42 1012.1
20260502190625 15 295 1.6 9.7 0.00 0.00 0.00 45 1012.3
20260502185626 15 174 0.0 3.2 0.00 0.00 0.00 45 1012.5
20260502184625 15 106 0.0 3.2 0.00 0.00 0.00 44 1012.4
20260502184025 13 340 1.6 4.8 0.00 0.00 0.00 46 1012.6
20260502183757 14 316 1.6 8.0 0.00 0.00 0.00 44 1012.4
20260502182110 13 104 0.0 4.8 0.00 0.00 0.00 46 1012.7
20260502180626 13 297 0.0 8.0 0.00 0.00 0.00 45 1012.9
20260502163619 12 44 3.2 12.9 0.00 0.00 0.00 50 1013.9
20260502163104 12 70 0.0 8.0 0.00 0.00 0.00 52 1014.0
20260502161617 12 330 1.6 16.1 0.00 0.00 0.00 54 1014.2
20260502161059 12 11 1.6 8.0 0.00 0.00 0.00 54 1014.0
20260502151619 12 103 0.0 6.4 0.00 0.00 0.00 61 1014.2
20260502150609 12 311 1.6 6.4 0.00 0.00 0.00 65 1014.3
20260502130604 12 36 0.0 6.4 0.00 0.00 0.00 71 1013.3
20260502123216 12 24 1.6 8.0 0.00 0.00 0.00 70 1013.1
20260502123014 12 340 1.6 4.8 0.00 0.00 0.00 71 1013.0
20260502121036 12 319 1.6 8.0 0.00 0.00 0.00 72 1012.3
20260502115557 12 333 1.6 11.3 0.00 0.00 0.00 71 1012.7
20260502114557 12 36 0.0 4.8 0.00 0.00 0.00 71 1013.2
20260502113558 12 311 1.6 11.3 0.00 0.00 0.00 71 1012.9
20260502112557 12 336 0.0 9.7 0.00 0.00 0.00 72 1012.9
20260502112056 12 321 0.0 6.4 0.00 0.00 0.00 72 1012.6
20260502110557 12 50 1.6 14.5 0.00 0.00 0.00 72 1012.4
20260502105557 12 328 0.0 9.7 0.00 0.00 0.00 73 1012.5
20260502104600 12 243 0.0 6.4 0.00 0.00 0.00 73 1012.2
20260502103550 12 29 1.6 8.0 0.00 0.00 0.00 72 1012.4
20260502102552 12 348 1.6 6.4 0.00 0.00 0.00 73 1012.5
20260502102505 12 96 0.0 4.8 0.00 0.00 0.00 74 1012.1
20260502101027 12 300 1.6 8.0 0.00 0.00 0.00 73 1012.3
20260502090552 13 75 0.0 3.2 0.00 0.00 0.00 73 1013.2
20260502090501 13 357 0.0 3.2 0.00 0.00 0.00 74 1013.1